Regional Weather Roundup
Issued by NWS Sterling, VA

Home | Current Version | Previous Version | Text Only | Print | Product List | Glossary Off
Versions: 1 2 3 4 5 6 7 8 9 10 11 12 13 14 15 16 17 18 19 20 21 22 23 24 25 26 27 28 29 30 31 32 33 34 35 36 37 38 39 40 41 42 43 44 45 46 47 48 49

000
ASUS41 KLWX 241210
RWRLWX

REGIONAL WEATHER ROUNDUP
NATIONAL WEATHER SERVICE BALTIMORE MD/WASHINGTON DC
800 AM EDT FRI APR 24 2015

Note: "FAIR" indicates few or no clouds below 12,000 feet
with no significant weather and/or obstructions to visibility.
 TC=TEMPERATURE CELSIUS

 * =Non NWS site. Station does not report precipitation (e.g. rain,
    snow, etc.), thunder, or fog.

DCZ001-MDZ009-015-VAZ040>042-051-053>054-241300-
WASHINGTON METRO

CITY           SKY/WX    TMP DP  RH WIND       PRES   REMARKS
WASHINGTON NAT MOSUNNY   44  18  35 N17G23    30.05R
DULLES         MOSUNNY   41  20  43 NW10      30.04R
ANDREWS AFB    MOSUNNY   41  20  44 NW15G24   30.03R
FT BELVOIR     SUNNY     43  21  42 NW17      30.05R
QUANTICO       MOSUNNY   44  23  43 N10       30.07R
COLLEGE PARK*  SUNNY     41  21  45 NW9G23    30.04R
LEESBURG*      SUNNY     41  27  56 N16G22    30.03F
MANASSAS*      SUNNY     43  25  49 N129      30.05R WCI  27
GAITHERSBURG*  SUNNY     37  19  48 NW10      30.06R

$$

MDZ006>007-011-014-241300-
BALTIMORE METRO

CITY           SKY/WX    TMP DP  RH WIND       PRES   REMARKS
BWI AIRPORT    MOSUNNY   41  21  44 NW20G25   30.02R
MD SCIENCE CTR   N/A     41  20  43 MISG      30.02R
MARTIN STATE   PTSUNNY   41  25  52 W18       30.04R
ANNAPOLIS      MOSUNNY   42  25  50 NW7G18    30.03R
FORT MEADE*    MOSUNNY   41  23  48 NW9       30.05S

$$

MDZ012-015-019>023-241300-
MARYLAND EASTERN SHORE

CITY           SKY/WX    TMP DP  RH WIND       PRES   REMARKS
OCEAN CITY     SUNNY     41  22  46 NW16G26   30.00R
SALISBURY      PTSUNNY   42  23  46 NW15      30.01R
BAY BRIDGE AP*   N/A    N/A N/A N/A NW21      30.03S
CAMBRIDGE*     PTSUNNY   43  23  45 NW13G23   30.02S
EASTON*        CLOUDY    41  25  52 N12G21    30.05R

$$

MDZ017>025-241300-
SOUTHERN MARYLAND

CITY           SKY/WX    TMP DP  RH WIND       PRES   REMARKS
PATUXENT RIVER MOSUNNY   43  24  47 N21G28    30.03R
ST INIGOES     SUNNY     43  23  45 NW10G23   30.03R
LEONARDTOWN*   SUNNY     41  21  45 NW10G16   30.05F

$$

MDZ003>005-241300-
NORTH CENTRAL MARYLAND

CITY           SKY/WX    TMP DP  RH WIND       PRES   REMARKS
FREDERICK*     SUNNY     41  16  36 NW8G22    30.06R
HAGERSTOWN APT SUNNY     39  19  44 NW14      30.02R
WESTMINSTER*   SUNNY     37  18  44 NW15G22   30.00S WCI  28

$$

MDZ501>502-241300-
WESTERN MARYLAND

CITY           SKY/WX    TMP DP  RH WIND       PRES   REMARKS
OAKLAND*       SUNNY     28  27  93 W12G21    29.98R WCI  18
CUMBERLAND*    SUNNY     39  19  45 NW12G23   30.10R

$$

VAZ025>031-241300-
SHENANDOAH VALLEY

CITY           SKY/WX    TMP DP  RH WIND       PRES   REMARKS
WINCHESTER*    SUNNY     41  18  38 NW13      30.04S
FRONT ROYAL*   FAIR      39  21  48 NW8G16    30.04S
LURAY*         FAIR      43  23  45 NW10G21   30.04R
NEW MARKET*    FAIR      40  21  46 NW7       30.05R
STAUNTON*      SUNNY     42  22  44 N9        30.04R
WAYNESBORO*    FAIR      40  20  43 NW5       30.02R

$$

WVZ021-048>050-054>055-241300-
EASTERN WEST VIRGINIA PANHANDLE

CITY           SKY/WX    TMP DP  RH WIND       PRES   REMARKS
MARTINSBURG    SUNNY     40  19  43 NW14G23   30.03S
PETERSBURG*    SUNNY     40  20  45 NW13      30.08R

$$

VAZ036>039-050-241300-
CENTRAL FOOTHILLS

CITY           SKY/WX    TMP DP  RH WIND       PRES   REMARKS
CHARLOTTESVILL SUNNY     46  23  40 CALM      30.03R
CULPEPER*      SUNNY     45  21  39 N9        30.05R
ORANGE*        SUNNY     45  30  57 N6        30.05R
GORDONSVILLE*  FAIR      42  29  58 E3        30.03R
WARRENTON*     FAIR      44  26  48 NW8       30.05R

$$

VAZ055>057-241300-
NORTH AND CENTRAL PIEDMONT

CITY           SKY/WX    TMP DP  RH WIND       PRES   REMARKS
FREDERICKSBRG* SUNNY     44  26  49 N7        30.05R
STAFFORD*      SUNNY     42  22  45 N9G22     30.09R

$$

NCZ024-NYZ072-PAZ021-071-VAZ022-071-241300-
OTHER REGIONAL OBSERVATIONS

CITY           SKY/WX    TMP DP  RH WIND       PRES   REMARKS
NEW YORK CITY  CLOUDY    39  19  44 NW8G21    29.90S
PHILADELPHIA   MOSUNNY   41  19  41 NW15G26   29.97R
PITTSBURGH     SUNNY     33  25  72 W6        30.07S
ROANOKE        MOSUNNY   45  15  30 NW9       30.06S
RICHMOND       SUNNY     45  31  58 N10       30.04R
RALEIGH        MOSUNNY   47  30  51 CALM      30.07R

$$

ANZ530>537-241300-
MARINE OBSERVATIONS

STATION/POSITION TIME  TEMP    WIND        PRES
                       AIR SEA DIR/SP/G
                 (UTC) (F)     (DEG/KT/KT) (MB)
THOMAS PT LIGHT  1200   40 53  320/ 14/ 18 1017.5R
BALT KEY BRIDGE  1100   40     320/ 14/ 18 1016.3R
COVE POINT       1100   41     350/ 24/ 26 1017.2R
LEWISETTA        1100   44 57              1016.6R
SOLOMONS ISLAND  1100      56                N/A
PINEY POINT      1100           10/ 15/ 19   N/A

$$



USA.gov is the U.S. government's official web portal to all federal, state and local government web resources and services.